#timestamp,LO_Frequency,Hit,StdDev 
1514743215.7,286047000.7,N
1514743235.6,286047002.5,N
1514743255.4,286047009.0,Y
1514743275.2,286047008.1,P
1514743295.1,286047011.0,N
1514743296.0,286047011.0,N
1514743315.8,286047012.8,N
1514743335.6,286047014.9,N
1514743355.5,286047012.6,N
1514743375.3,286047013.3,N
1514743395.1,286047012.9,N
1514743415.9,286047016.1,Y
1514743435.7,286047005.3,P
1514743455.5,286047005.4,N
1514743475.4,286047001.3,N
1514743495.2,286047001.7,N
1514743515.0,286047002.4,N
1514743515.9,286047002.4,N
1514743535.8,286046999.7,N
1514743555.6,286047004.4,N
1514743575.4,286047000.0,N
1514743595.2,286047002.0,N
1514743615.1,286047000.3,N
1514743616.0,286047000.3,N
1514743635.8,286047000.9,N
1514743655.6,286047001.7,N
1514743675.5,286047005.6,N
1514743695.3,286047006.8,N
1514743715.1,286047009.3,Y
1514743735.9,286047006.7,P
1514743755.7,286047004.9,N
1514743775.5,286047003.7,N
1514743795.4,286047006.0,Y
1514743815.2,286047001.3,P
1514743835.0,286046999.7,N
1514743835.9,286046999.7,N
1514743855.8,286047003.9,N
1514743875.6,286047005.4,N
1514743895.4,286047007.4,Y
1514743915.3,286047003.0,P
1514743935.1,286047004.9,P
1514743936.0,286047004.9,P
1514743955.8,286047007.6,Y
1514743975.7,286047002.0,P
1514743995.5,286046999.3,N
1514744015.3,286046998.0,N
1514744035.2,286046993.3,N
1514744055.9,286046994.0,N
1514744075.7,286046991.9,N
1514744095.6,286046992.3,N
1514744115.4,286046995.3,N
1514744135.2,286046991.9,N
1514744155.0,286046998.0,N
1514744156.0,286046998.0,N
1514744175.8,286046995.3,N
1514744195.6,286046993.3,N
1514744215.4,286046994.0,N
1514744235.3,286046997.6,N
1514744255.1,286046992.3,N
1514744275.8,286046990.1,N
1514744295.7,286046992.0,N
1514744315.5,286046991.0,N
1514744335.3,286046991.6,N
1514744355.2,286046991.6,N
1514744375.9,286046992.6,N
1514744395.7,286046991.0,N
1514744415.6,286046988.7,Y
1514744435.4,286046995.8,P
1514744455.2,286046995.5,P
1514744475.1,286046994.7,P
1514744476.0,286046994.7,Y
1514744495.8,286046997.0,P
1514744515.6,286046997.2,P
1514744535.5,286046997.5,N
1514744555.3,286047000.9,N
1514744575.1,286047002.4,N
1514744595.9,286047000.1,N
1514744615.7,286047004.6,N
1514744635.5,286047012.2,Y
1514744655.4,286047011.3,P
1514744675.2,286047010.0,N
1514744695.0,286047009.1,N
1514744695.9,286047009.1,N
1514744715.8,286047015.4,Y
1514744735.6,286047015.1,P
1514744755.4,286047013.3,P
1514744775.3,286047007.7,N
1514744795.1,286047009.0,N
1514744796.0,286047009.0,N
1514744815.8,286047005.2,N
1514744835.7,286047015.3,Y
1514744855.5,286047009.2,P
1514744875.3,286047003.6,P
1514744895.2,286047002.0,N
1514744915.9,286047002.4,N
1514744935.7,286047001.1,N
1514744955.5,286047002.4,N
1514744975.4,286046995.7,N
1514744995.2,286046998.6,N
1514745015.0,286046998.2,N
1514745015.9,286046998.2,N
1514745035.8,286046997.6,N
1514745055.6,286047001.9,N
1514745075.4,286047003.4,N
1514745095.3,286047002.8,N
1514745115.1,286046999.5,N
1514745116.0,286046999.5,N
1514745135.8,286046995.2,N
1514745155.7,286046997.3,N
1514745175.5,286047000.0,N
1514745195.3,286046996.5,N
1514745215.1,286046993.9,N
1514745235.9,286046991.8,N
1514745255.7,286046989.5,N
1514745275.5,286046991.4,N
1514745295.4,286046988.0,N
1514745315.2,286046991.9,N
1514745335.0,286046989.5,N
1514745335.9,286046989.5,N
1514745355.8,286046990.4,N
1514745375.6,286046990.3,N
1514745395.4,286046988.7,N
1514745415.3,286046987.0,N
1514745435.1,286046988.8,N
1514745436.0,286046988.8,N
1514745455.8,286046986.9,N
1514745475.7,286046987.0,N
1514745495.5,286046985.3,N
1514745515.3,286046986.8,N
1514745535.1,286046986.3,N
1514745555.9,286046988.0,N
1514745575.7,286046982.5,Y
1514745595.6,286046992.8,P
1514745615.4,286046992.4,P
1514745635.2,286046988.9,P
1514745655.1,286046991.6,Y
1514745656.0,286046991.6,P
1514745675.8,286046998.2,P
1514745695.6,286047000.8,N
1514745715.5,286047006.0,N
1514745735.3,286047002.8,N
1514745755.1,286046998.6,N
1514745775.8,286046999.4,N
1514745795.7,286047000.0,N
1514745815.5,286047002.2,N
1514745835.3,286047001.7,N
1514745855.2,286047001.7,N
1514745875.9,286046998.1,N
1514745895.7,286047002.7,N
1514745915.6,286047002.0,N
1514745935.4,286046998.2,N
1514745955.2,286046998.3,N
1514745975.1,286047002.5,N
1514745976.0,286047002.5,N
1514745995.8,286047000.1,N
1514746015.6,286047000.7,N
1514746035.4,286047000.9,N
1514746055.3,286047002.6,N
1514746075.1,286047001.9,N
1514746095.8,286046998.7,N
1514746115.7,286046997.6,N
1514746135.5,286046994.3,N
1514746155.3,286046994.5,N
1514746175.2,286046992.0,N
1514746195.9,286046992.6,N
1514746215.7,286046992.3,N
1514746235.6,286046992.6,N
1514746255.4,286046993.6,N
1514746275.2,286046991.7,N
1514746295.0,286046994.5,N
1514746296.0,286046994.5,N
1514746315.8,286046994.7,N
1514746335.6,286046993.5,N
1514746355.4,286046992.5,N
1514746375.3,286046993.9,N
1514746395.1,286046993.3,N
1514746415.8,286046995.6,N
1514746435.7,286046994.9,N
1514746455.5,286046995.3,N
1514746475.3,286046996.1,N
1514746495.2,286046992.9,N
1514746515.9,286046994.1,N
1514746535.7,286046995.5,N
1514746555.6,286046997.5,N
1514746575.4,286046995.9,N
1514746595.2,286046994.3,N
1514746615.0,286046995.8,N
1514746616.0,286046995.8,N
1514746635.8,286046995.3,N
1514746655.6,286046999.5,N
1514746675.4,286046999.4,N
1514746695.3,286046999.7,N
1514746715.1,286047004.4,N
1514746735.8,286047000.4,N
1514746755.7,286047004.2,N
1514746775.5,286047004.8,N
1514746795.3,286047005.4,N
